Location: Linz
(48.3300°N, 14.3000°E)
Time: 14:17:04
(UTC+01:00)

OTV 5 (USA 277) - Pass Details

Date: 17 November 2017
Orbit: 404 x 417 km, 43.0° (Epoch: 07 September)

Event Time Altitude Azimuth Distance (km) Brightness Sun altitude
Exits shadow 04:09:18 10° 115° (ESE) 1,439 ? -30.3°
Drops below altitude 10° 04:09:25 10° 114° (ESE) 1,483 ? -30.3°
Sets 04:11:33 0° 104° (ESE) 2,315 ? -30.0°
